[[{"header":{"parameterUnit":"m.s-1","parameterCategory":1,"la1":30.2991,"la2":30.254,"lo1":-89.0895,"lo2":-89.0444,"dy":0.0017,"dx":0.0017,"nx":28,"ny":28,"refTime":"2024-03-04T03:00:00:Z","depth":0,"parameterNumber":2,"parameterNumberName":"U-component_of_WINDS"},"data":[0,0,0,0,0,0,0,0,0,0,0,0,0,0,0,0,0,0,0,0,0,0,0,0,0,0,0,0,0,0,0,0,0,0,0,0,0,0,0,0,0,0,0,0,0,0,0,0,0,0,0,0,0,0,0,0,0,0,-3.7181,-3.7181,0,-3.7138,-3.7138,-3.7137,-3.7037,-3.7035,-3.7032,-3.703,-3.6988,-3.6989,-3.6989,0,0,0,0,0,0,0,0,0,0,0,0,0,-3.7181,-3.7182,-3.7181,-3.7181,-3.718,-3.7138,-3.7138,-3.7137,-3.7037,-3.7034,-3.7032,-3.703,-3.6988,-3.6988,-3.6989,0,0,0,0,0,0,0,0,0,0,0,0,0,-3.7164,-3.7182,-3.7181,-3.7125,-3.712,-3.7138,-3.7138,-3.7137,-3.7038,-3.7034,-3.7031,-3.7028,-3.6987,-3.6988,-3.699,-3.706,0,0,-3.6993,-3.6994,0,0,0,0,0,0,0,0,-3.7165,-3.7164,-3.7134,-3.7129,-3.7123,-3.709,-3.7122,-3.7111,-3.7038,-3.7069,-3.703,-3.7027,-3.7024,-3.7022,-3.7021,-3.7058,-3.7056,-3.6993,-3.6994,-3.6995,-3.6995,0,0,0,0,0,0,0,-3.7166,-3.7165,-3.7164,-3.7134,-3.7127,-3.7104,-3.7098,-3.7119,-3.7065,-3.7066,-3.7058,-3.7055,-3.7021,-3.702,-3.7019,-3.7055,-3.6993,-3.6994,-3.6995,-3.6996,-3.7153,-3.7156,0,0,0,0,0,0,-3.7175,-3.7167,-3.7165,-3.7163,-3.7137,-3.7106,-3.71,-3.7103,-3.7064,-3.7055,-3.7057,-3.705,-3.702,-3.7018,-3.7018,-3.7099,-3.6995,-3.6996,-3.6997,-3.7149,-3.7153,-3.7157,0,0,0,0,0,0,-3.7176,-3.7176,-3.7167,-3.7163,-3.716,-3.7109,-3.7115,-3.7104,-3.7103,-3.7058,-3.7048,-3.7067,-3.7017,-3.7016,-3.7051,-3.7096,-3.6996,-3.6997,-3.7145,-3.7151,-3.7155,-3.7262,0,0,0,0,0,0,-3.7176,-3.7177,-3.7201,-3.7164,-3.7161,-3.72,-3.7117,-3.7106,-3.7106,-3.7096,-3.7064,-3.7055,-3.7015,-3.705,-3.7052,-3.7096,-3.6998,-3.7141,-3.7148,-3.7154,-3.7254,-3.727,-3.7284,0,0,0,0,0,-3.7176,-3.7232,-3.7203,-3.7203,-3.719,-3.7203,-3.7201,-3.7152,-3.711,-3.7135,-3.7107,-3.7056,-3.7092,-3.7054,-3.7056,-3.7101,-3.7138,-3.7146,-3.7153,-3.7248,-3.7267,-3.7284,0,0,0,0,0,0,-3.7275,-3.7226,-3.7193,-3.7238,-3.7226,-3.7186,-3.7215,-3.7174,-3.7173,-3.7164,-3.7104,-3.7098,-3.7142,-3.7125,-3.7084,-3.717,-3.7107,-3.7115,-3.7178,-3.7196,-3.7211,-3.7213,-3.6999,0,0,0,0,0,-3.7302,-3.7315,-3.7273,-3.7317,-3.7313,-3.7266,-3.7269,-3.7234,-3.7218,-3.7212,-3.7186,-3.7174,-3.7182,-3.7189,-3.7194,-3.7253,-3.7246,-3.7285,-3.73,-3.7313,-3.732,-3.7354,-3.7371,-3.7183,-3.7182,-3.7182,0,0,-3.7357,-3.7333,-3.7344,-3.7336,-3.7322,-3.7339,-3.7262,-3.7282,-3.7294,-3.7215,-3.7247,-3.7229,-3.7211,-3.726,-3.728,-3.7247,-3.7372,-3.7323,-3.7333,-3.7333,-3.7364,-3.7382,-3.7397,-3.7188,-3.7187,-3.7186,0,0,-3.7467,-3.745,-3.7486,-3.7475,-3.7455,-3.7425,-3.7434,-3.7402,-3.7386,-3.7418,-3.736,-3.7376,-3.7391,-3.7382,-3.7379,-3.7493,-3.7448,-3.7497,-3.7574,-3.7607,-3.7622,-3.7635,-3.7677,-3.7693,-3.7505,-3.7505,-3.7506,0,-3.7539,-3.756,-3.751,-3.7535,-3.7535,-3.7466,-3.7504,-3.7496,-3.7479,-3.7481,-3.7445,-3.7466,-3.7449,-3.7496,-3.7525,-3.7525,-3.7535,-3.7499,-3.7624,-3.7636,-3.7648,-3.7687,-3.7703,-3.7511,-3.7511,-3.751,-3.751,0,-3.7651,-3.7668,-3.77,-3.7687,-3.769,-3.7722,-3.7678,-3.7688,-3.7655,-3.7629,-3.7665,-3.7643,-3.7644,-3.7654,-3.7619,-3.7697,-3.7678,-3.7635,-3.757,-3.7673,-3.7709,-3.7724,-3.752,-3.7518,-3.7516,-3.7515,0,0,-3.7816,-3.7779,-3.7791,-3.7787,-3.7763,-3.7776,-3.7807,-3.7809,-3.782,-3.7813,-3.7838,-3.7855,-3.7816,-3.7814,-3.7779,-3.7809,-3.7904,-3.7762,-3.776,-3.7789,-3.7991,-3.8024,-3.8042,-3.7875,-3.7878,-3.788,-3.7993,0,-3.7919,-3.7968,-3.7926,-3.7984,-3.8001,-3.7939,-3.7967,-3.7957,-3.7935,-3.7948,-3.7925,-3.7939,-3.7885,-3.7884,-3.7911,-3.7886,-3.7943,-3.7878,-3.7899,-3.79,-3.7904,-3.806,-3.8094,-3.8201,-3.8006,-3.8009,-3.8011,0,-3.8045,-3.8045,-3.8105,-3.8082,-3.8088,-3.8113,-3.8114,-3.8126,-3.8116,-3.8098,-3.8099,-3.8058,-3.8089,-3.8029,-3.8072,-3.8029,-3.8036,-3.8027,-3.803,-3.8028,-3.7961,-3.8064,-3.8234,-3.825,-3.8032,-3.803,-3.8029,0,-3.8161,-3.8176,-3.8215,-3.8213,-3.8187,-3.8206,-3.8197,-3.8183,-3.8189,-3.8191,-3.8194,-3.82,-3.8203,-3.821,-3.8173,-3.8132,-3.8223,-3.8158,-3.821,-3.8212,-3.823,-3.8229,-3.8404,-3.8236,-3.8236,-3.8236,-3.8235,0,-3.828,-3.8319,-3.8267,-3.829,-3.8334,-3.8288,-3.8333,-3.8317,-3.8307,-3.8328,-3.8276,-3.8298,-3.8248,-3.8265,-3.8237,-3.8279,-3.8281,-3.8269,-3.8261,-3.8273,-3.8275,-3.8276,-3.8267,-3.824,-3.8239,-3.8238,-3.8237,0,-3.8414,-3.8381,-3.8419,-3.8394,-3.8389,-3.8422,-3.8401,-3.8423,-3.8401,-3.8429,-3.8433,-3.8398,-3.8416,-3.8381,-3.8394,-3.8375,-3.8435,-3.8415,-3.8438,-3.8432,-3.8487,-3.8483,-3.8667,-3.869,-3.8509,-3.8511,-3.8512,0,-3.8492,-3.8521,-3.85,-3.8511,-3.8504,-3.8522,-3.8529,-3.8487,-3.8496,-3.849,-3.8514,-3.8528,-3.8536,-3.8569,-3.8545,-3.8557,-3.8537,-3.8601,-3.8538,-3.8551,-3.8539,-3.8537,-3.8541,-3.8613,-3.8616,-3.8617,-3.8619,0,-3.8633,-3.8617,-3.8628,-3.8635,-3.8645,-3.8649,-3.8648,-3.8661,-3.8617,-3.8631,-3.8649,-3.8657,-3.8672,-3.8688,-3.8694,-3.8686,-3.8646,-3.864,-3.8653,-3.8665,-3.8677,-3.8672,-3.8473,-3.8635,-3.8633,-3.8632,-3.8631,-3.8631,-3.8741,-3.8766,-3.8756,-3.8772,-3.8769,-3.8771,-3.8792,-3.8774,-3.8789,-3.8798,-3.8773,-3.8799,-3.8793,-3.8797,-3.8794,-3.8815,-3.8786,-3.8805,-3.8809,-3.8814,-3.8824,-3.8676,-3.8816,-3.8816,-3.8815,-3.8815,-3.8814,0,-3.8881,-3.8873,-3.8888,-3.8891,-3.8905,-3.8868,-3.8868,-3.8882,-3.8905,-3.8902,-3.8914,-3.8938,-3.8954,-3.8935,-3.8948,-3.8969,-3.8951,-3.8974,-3.8971,-3.8971,-3.8848,-3.8835,-3.8988,-3.8988,-3.8988,-3.8988,-3.8988,-3.8988,-3.8954,-3.8995,-3.8979,-3.9019,-3.9011,-3.9036,-3.9039,-3.9043,-3.9041,-3.907,-3.9084,-3.9072,-3.9064,-3.9077,-3.9092,-3.9086,-3.9094,-3.9123,-3.9111,-3.8996,-3.8979,-3.8962,-3.8951,-3.9125,-3.9125,-3.9232,-3.9233,-3.9234]},{"header":{"parameterUnit":"m.s-1","parameterCategory":1,"la1":30.2991,"la2":30.254,"lo1":-89.0895,"lo2":-89.0444,"dy":0.0017,"dx":0.0017,"nx":28,"ny":28,"refTime":"2024-03-04T03:00:00:Z","depth":0,"parameterNumber":3,"parameterNumberName":"V-component_of_WINDS"},"data":[0,0,0,0,0,0,0,0,0,0,0,0,0,0,0,0,0,0,0,0,0,0,0,0,0,0,0,0,0,0,0,0,0,0,0,0,0,0,0,0,0,0,0,0,0,0,0,0,0,0,0,0,0,0,0,0,0,0,1.3926,1.3926,0,1.3976,1.3976,1.3977,1.4065,1.4067,1.4068,1.407,1.4118,1.4117,1.4117,0,0,0,0,0,0,0,0,0,0,0,0,0,1.3905,1.3905,1.3926,1.3926,1.3927,1.3976,1.3976,1.3977,1.4065,1.4067,1.4069,1.4071,1.4118,1.4117,1.4117,0,0,0,0,0,0,0,0,0,0,0,0,0,1.393,1.3905,1.3926,1.3977,1.3982,1.3976,1.3976,1.3977,1.4064,1.4067,1.4069,1.4072,1.4118,1.4117,1.4117,1.4064,0,0,1.4116,1.4116,0,0,0,0,0,0,0,0,1.3929,1.3931,1.3969,1.3973,1.3979,1.4017,1.3987,1.4006,1.4064,1.4033,1.407,1.4073,1.4082,1.4085,1.4088,1.4067,1.4069,1.4116,1.4115,1.4115,1.4115,0,0,0,0,0,0,0,1.3927,1.3929,1.3946,1.3969,1.3975,1.3997,1.4003,1.3991,1.4042,1.4036,1.4042,1.4047,1.4085,1.4089,1.409,1.4069,1.4116,1.4115,1.4115,1.4115,1.401,1.4007,0,0,0,0,0,0,1.3918,1.3927,1.3944,1.3947,1.396,1.3995,1.4002,1.4002,1.4043,1.4052,1.4045,1.4051,1.4088,1.4091,1.4092,1.4035,1.4115,1.4115,1.4115,1.4012,1.4009,1.4006,0,0,0,0,0,0,1.3917,1.3919,1.3942,1.3939,1.3944,1.3993,1.3992,1.4002,1.4005,1.405,1.4059,1.4039,1.409,1.4093,1.4072,1.4038,1.4115,1.4114,1.4015,1.4011,1.4008,1.3919,0,0,0,0,0,0,1.3916,1.3918,1.3898,1.3938,1.3943,1.392,1.399,1.4001,1.4005,1.4013,1.4047,1.4055,1.4092,1.4072,1.4071,1.4039,1.4114,1.4018,1.4013,1.4009,1.3925,1.3913,1.3902,0,0,0,0,0,1.3915,1.387,1.3897,1.3898,1.392,1.3918,1.3921,1.3966,1.4002,1.3983,1.4012,1.4054,1.4042,1.4069,1.4069,1.4036,1.4021,1.4015,1.4009,1.3931,1.3915,1.3902,0,0,0,0,0,0,1.3823,1.3876,1.3906,1.3873,1.3891,1.3933,1.391,1.3948,1.3956,1.3963,1.4018,1.4024,1.3997,1.4014,1.4043,1.3988,1.4038,1.4032,1.3978,1.3964,1.3953,1.3949,1.4114,0,0,0,0,0,1.3799,1.3794,1.384,1.3806,1.3814,1.386,1.3861,1.3895,1.3915,1.3922,1.395,1.3967,1.3968,1.3967,1.3969,1.3928,1.3938,1.3906,1.3894,1.3885,1.3879,1.3861,1.3848,1.3988,1.3988,1.3988,0,0,1.3749,1.3777,1.377,1.3788,1.3806,1.38,1.3866,1.3855,1.3851,1.392,1.3903,1.3924,1.3947,1.3916,1.3904,1.393,1.3842,1.3877,1.3869,1.3869,1.3854,1.384,1.3828,1.3984,1.3984,1.3985,0,0,1.3655,1.3675,1.3651,1.3668,1.3695,1.3727,1.372,1.3758,1.3775,1.3759,1.3811,1.3807,1.3806,1.3821,1.3828,1.3743,1.3782,1.3742,1.3682,1.3663,1.3652,1.3643,1.3614,1.3603,1.3736,1.3736,1.3736,0,1.3589,1.3582,1.3633,1.362,1.3627,1.3691,1.3667,1.3681,1.3706,1.371,1.3739,1.3741,1.3761,1.3736,1.3715,1.3718,1.3714,1.3739,1.365,1.3641,1.3633,1.3606,1.3595,1.3731,1.3732,1.3732,1.3733,0,1.3501,1.3495,1.3472,1.3498,1.3502,1.3483,1.3531,1.3529,1.3563,1.3591,1.3575,1.3601,1.3612,1.3608,1.3639,1.3588,1.3604,1.364,1.3691,1.3614,1.3589,1.3579,1.3724,1.3726,1.3727,1.3728,0,0,1.3349,1.3405,1.3396,1.3409,1.3445,1.3441,1.3426,1.3438,1.3436,1.3452,1.3441,1.344,1.3476,1.3484,1.3518,1.3502,1.3435,1.3541,1.3543,1.3522,1.3382,1.3355,1.3342,1.3461,1.346,1.3458,1.338,0,1.3263,1.3242,1.3288,1.3255,1.3252,1.3314,1.3301,1.3321,1.3348,1.3349,1.3378,1.3377,1.3423,1.3429,1.3416,1.3446,1.3408,1.3452,1.3452,1.3452,1.3445,1.3329,1.3299,1.3225,1.3371,1.3369,1.3368,0,1.316,1.3174,1.3141,1.3181,1.3181,1.3169,1.3185,1.3185,1.3209,1.323,1.3241,1.3282,1.327,1.3319,1.3304,1.3333,1.3336,1.3351,1.335,1.3352,1.3405,1.3329,1.3202,1.3191,1.3353,1.3355,1.3356,0,1.3055,1.3064,1.3047,1.3056,1.3102,1.3092,1.3111,1.3139,1.3144,1.3157,1.3161,1.3172,1.3178,1.3186,1.3229,1.3261,1.321,1.3262,1.3227,1.3226,1.3214,1.3214,1.3086,1.3214,1.3214,1.3214,1.3214,0,1.2955,1.2933,1.3001,1.299,1.2967,1.3021,1.2997,1.3022,1.3046,1.3041,1.3095,1.3089,1.3146,1.3146,1.318,1.3164,1.3165,1.3182,1.3191,1.3178,1.3176,1.3181,1.3187,1.3211,1.3212,1.3212,1.3213,0,1.2833,1.2878,1.2863,1.2909,1.292,1.2901,1.294,1.2932,1.2964,1.2957,1.2959,1.3007,1.3011,1.3055,1.3067,1.309,1.306,1.3079,1.3052,1.3059,1.3022,1.3025,1.2894,1.288,1.3015,1.3013,1.3012,0,1.2767,1.2752,1.2797,1.2798,1.2815,1.2816,1.2823,1.2875,1.2879,1.2908,1.2897,1.2905,1.2915,1.2918,1.2954,1.2964,1.2984,1.2937,1.2986,1.2973,1.2985,1.2985,1.2985,1.2927,1.2925,1.2924,1.2922,0,1.2645,1.2669,1.2676,1.2692,1.2698,1.2713,1.273,1.2728,1.2786,1.2788,1.2794,1.2801,1.2816,1.2824,1.2841,1.286,1.2901,1.2907,1.29,1.2886,1.2872,1.2881,1.3025,1.291,1.2911,1.2912,1.2913,1.2913,1.255,1.2541,1.2572,1.2579,1.2598,1.2614,1.261,1.2642,1.2648,1.2665,1.2695,1.2696,1.2724,1.2752,1.2767,1.2769,1.2793,1.2782,1.2779,1.2776,1.2769,1.2871,1.2772,1.2772,1.2773,1.2773,1.2773,0,1.2432,1.2456,1.2462,1.2487,1.2493,1.2533,1.2555,1.2557,1.2558,1.2581,1.259,1.2597,1.2606,1.2643,1.2656,1.265,1.267,1.2652,1.2653,1.2657,1.2746,1.2752,1.2637,1.2637,1.2637,1.2637,1.2637,1.2637,1.2372,1.2358,1.2386,1.2383,1.2407,1.241,1.242,1.2435,1.2454,1.246,1.2468,1.2494,1.2523,1.2539,1.2548,1.2559,1.2562,1.2538,1.2555,1.2638,1.2651,1.2663,1.2669,1.2538,1.2538,1.2467,1.2466,1.2465]}]]